If you wish to contribute or participate in the discussions about articles you are invited to join SKYbrary as a registered user

 Actions

Savannakhet Airport

From SKYbrary Wiki

VLSK
Airport
ICAO: VLSK – IATA: ZVK
Summary
Name Savannakhet Airport
Region Asia and Pacific
Territory Laos LA.gif
Location Savannakhet, Khoueng Savannakhet
Serving Savannakhet
Elevation 155.143 m
509 ft
509 ft155.143 m
Type medium airport
Coordinates 16° 33' 23.72" N, 104° 45' 34.31" E
Runways
Designator Length Width Surface ROPS
4/22 1633 m5,357.612 ft
38 m124.672 ft
CON /


METAR
Observation VLSK 220800Z 04006KT 7000 SCT020 SCT100 31/17 Q1012 NOSIG
Station Savannakhet
Date/Time 22 September 2019 08:00:00
Wind direction 40°
Wind speed 06 kts
Lowest cloud amount scattered clouds
Temperature 31°C
Dew point 17°C
Humidity 43%
QNH 1012 hPa
Weather condition n/a

Savannakhet Airport is an airport near Savannakhet, Laos.

Climatology

Tropical savannah climate (Köppen climate classification Aw)

Maps

Terrain

Loading map...

Airport Layout

Loading map...


Accidents & Serious Incidents at or in vicinity of VLSK

None on SKYbrary